This is the latest recevied weather packets stored in our database for station/object K7MT-WX. If no packets are shown the sender has not sent any weather packets the latest 1 day(s).
| Time | Temp. | Humidity | Pressure | Rain* | Wind** | Luminosity | Snow |
|---|---|---|---|---|---|---|---|
| 1836274369 | 14.44° C | 71% | 1015.2 hPa | 0 mm | 0 m/s | - | - |
| 1836274219 | 15° C | 70% | 1015.2 hPa | 0 mm | 0 m/s | - | - |
| 1778050331 | -0.56° C | 72% | 1019.8 hPa | 0 mm | 0 m/s | - | - |
| 1778049431 | -0.56° C | 71% | 1019.8 hPa | 0 mm | 0 m/s | - | - |
| 1778048531 | -0.56° C | 72% | 1019.6 hPa | 0 mm | 0 m/s | - | - |
| 1778047631 | 0° C | 71% | 1019.7 hPa | 0 mm | 0 m/s | - | - |
| 1778046731 | 0° C | 70% | 1019.5 hPa | 0 mm | 0 m/s | - | - |
| 1778045831 | 0.56° C | 68% | 1019.5 hPa | 0 mm | 0 m/s | - | - |
| 1778044931 | 1.11° C | 66% | 1019.5 hPa | 0 mm | 0 m/s | - | - |
| 1778044031 | 1.11° C | 67% | 1019.5 hPa | 0 mm | 0 m/s | - | - |
| 1778043131 | 1.67° C | 67% | 1019.5 hPa | 0 mm | 0 m/s | - | - |
| 1778042231 | 1.67° C | 67% | 1019.5 hPa | 0 mm | 0 m/s | - | - |
| 1778041301 | 2.22° C | 65% | 1019.4 hPa | 0 mm | 0 m/s | - | - |
| 1778040371 | 2.78° C | 64% | 1019.5 hPa | 0 mm | 0 m/s | - | - |
| 1778039441 | 2.78° C | 64% | 1019.5 hPa | 0 mm | 0 m/s | - | - |
| 1778038511 | 3.33° C | 63% | 1019.5 hPa | 0 mm | 0 m/s | - | - |
| 1778037611 | 3.33° C | 61% | 1019.5 hPa | 0 mm | 0.45 m/s, 114° | - | - |
| 1778036711 | 3.89° C | 60% | 1019.3 hPa | 0 mm | 0.89 m/s, 126° | - | - |
| 1778035811 | 5° C | 55% | 1018.9 hPa | 0 mm | 0.89 m/s, 134° | - | - |
| 1778034911 | 6.11° C | 50% | 1018.8 hPa | 0 mm | 1.34 m/s, 155° | - | - |
| 1778034011 | 7.22° C | 46% | 1018.6 hPa | 0 mm | 2.24 m/s, 155° | - | - |
| 1778033111 | 7.78° C | 43% | 1018.5 hPa | 0 mm | 3.13 m/s, 153° | - | - |
| 1778032211 | 8.33° C | 42% | 1018.4 hPa | 0 mm | 3.58 m/s, 160° | - | - |
| 1778031311 | 7.78° C | 44% | 1018.3 hPa | 0 mm | 2.68 m/s, 160° | - | - |
| 1778030411 | 8.33° C | 42% | 1018.4 hPa | 0 mm | 3.58 m/s, 154° | - | - |
* Rain latest hour (hover to see other rain measurements)
** Current wind speed in m/s (hover to see current wind gust speed)